Flag for U.S.A. Weather past 2 weeks in Oceanside, California, U.S.A.

Now
75 °F

Sunny.


Feels Like: 77 °F
Forecast: 66 / 77 °F
Wind: 12 mph from Southwest

Location: Oceanside Weather Reporting Station

Current Time: Jun 29, 2015 at 4:47:23 PM

Latest Report: Jun 29, 2015 at 3:52 PM


Visibility: 9 mi

Pressure: 29.88 "Hg

Humidity: 69%

Dew point: 64 °F

Location of OceansideLocation

Historic Weather in Oceanside — Graph

°F

Oceanside temperature yesterday

Maximum temperature yesterday: 77 °F (at 9:52 AM)
Minimum temperature yesterday: 64 °F (at 5:52 AM)
Average temperature yesterday: 71 °F

Past Weeks' High & Low Weather Summary

 TemperatureHumidityPressure
High79 °F (Jun 29, 11:52 AM)97% (Jun 19, 6:52 AM)30.02 "Hg (Jun 19, 6:52 AM)
Low58 °F (Jun 17, 11:52 PM)52% (Jun 23, 11:52 AM)29.77 "Hg (Jun 14, 5:52 PM)
Average68 °F77%29.89 "Hg
* Reported Jun 14 3:52 PM — Jun 29 3:52 PM, Oceanside, Weather by CustomWeather, © 2015

Note: Actual official high and low records may vary slightly from our data, if they occured in-between our weather recording intervals... More about our weather records

Advertising

Oceanside weather history for previous 24 hours

 ConditionsComfort  
Time TempWeatherWind HumidityBarometerVisibility
3:52 PM
Mon, Jun 29
75 °FSunny.12 mph69%29.88 "Hg9 mi
2:52 PM76 °FSunny.9 mph67%29.88 "Hg10 mi
1:52 PM74 °FSunny.12 mph74%29.89 "Hg9 mi
12:52 PM78 °FSunny.6 mph60%29.89 "Hg10 mi
11:52 AM79 °FSunny.10 mph60%29.89 "Hg10 mi
10:52 AM77 °FSunny.6 mph66%29.90 "Hg8 mi
9:52 AM72 °FMild.3 mph76%29.91 "Hg8 mi
8:52 AM70 °FScattered clouds.5 mph81%29.90 "Hg8 mi
7:52 AM69 °FSunny.3 mph81%29.89 "Hg8 mi
6:52 AM67 °FSunny.No wind85%29.88 "Hg8 mi
5:52 AM64 °FClear.No wind90%29.87 "Hg8 mi
4:52 AM64 °FClear.No wind87%29.85 "Hg9 mi
3:52 AM63 °FClear.No wind90%29.85 "Hg9 mi
2:52 AM64 °FClear.No wind87%29.86 "Hg8 mi
1:52 AM65 °FClear.No wind87%29.88 "Hg8 mi
12:52 AM67 °FClear.No wind85%29.88 "Hg9 mi
11:52 PM
Sun, Jun 28
66 °FClear.No wind84%29.89 "Hg9 mi
10:52 PM67 °FClear.No wind85%29.90 "Hg10 mi
9:52 PM69 °FClear.No wind81%29.89 "Hg10 mi
8:52 PM69 °FSunny.3 mph79%29.87 "Hg10 mi
7:52 PM70 °FSunny.No wind76%29.87 "Hg10 mi
6:52 PM71 °FSunny.7 mph76%29.85 "Hg10 mi
4:52 PM72 °FSunny.9 mph73%29.85 "Hg10 mi
Weather by CustomWeather, © 2015

See weather overviewHow to use our weather pages